Tracking 19489 objects as of 23-Jan-2019
HD Live streaming from Space Station
objects crossing your sky now

SL-14 R/B

Track SL-14 R/B now!
10-day predictions
SL-14 R/B is classified as:


NORAD ID: 17912
Int'l Code: 1987-038B
Perigee: 611.8 km
Apogee: 642.2 km
Inclination: 82.5 °
Period: 97.1 minutes
Semi major axis: 6998 km
RCS: 4.8281 m2 (large)
Launch date: April 27, 1987
Source: Commonwealth of Independent States (former USSR) (CIS)
Launch site: PLESETSK MISSILE AND SPACE COMPLEX (PKMTR)

Note: This is a ROCKET BODY
aabbcc
Your satellite tracking list
Your tracking list is empty




NASA's NSSDC Master Catalog

Two Line Element Set (TLE):
1 17912U 87038B   19022.55574712  .00000069  00000-0  54579-5 0  9996
2 17912  82.5002 222.0508 0021727 105.2002 255.1617 14.82997681714337
Source of the keplerian elements: AFSPC